Regional Weather Roundup
Issued by NWS

Home | Current Version | Previous Version | Text Only | Print | Product List | Glossary On
Versions: 1 2 3 4 5 6 7 8 9 10 11 12 13 14 15 16 17 18 19 20 21 22 23 24 25 26 27 28 29 30 31 32 33 34 35 36 37 38 39 40 41 42 43 44 45 46 47 48 49 50
000
ASUS44 KBMX 040610
RWRAL

ALABAMA REGIONAL WEATHER ROUNDUP
NATIONAL WEATHER SERVICE BIRMINGHAM AL
100 AM CDT FRI SEP 04 2015

NOTE: "FAIR" INDICATES FEW OR NO CLOUDS BELOW 12,000 FEET
WITH NO SIGNIFICANT WEATHER AND/OR OBSTRUCTIONS TO VISIBILITY.

THE REMARK "TC" DENOTES TEMPERATURE IN DEGREES CELSIUS.

ALZ001>011-014-016>018-020-040700-
NORTH ALABAMA

CITY           SKY/WX    TMP DP  RH WIND       PRES   REMARKS
MUSCLE SHOALS  PTCLDY    73  69  87 CALM      29.98S
6HR MIN TEMP:  72; 6HR MAX TEMP:  83;

HUNTSVILLE     CLEAR     72  70  93 SE3       29.98R FOG
6HR MIN TEMP:  72; 6HR MAX TEMP:  82;

DECATUR        CLEAR     71  71 100 CALM      29.98S FOG
6HR MIN TEMP:  70; 6HR MAX TEMP:  80;

HALEYVILLE     FAIR      70  70 100 CALM      30.01S FOG
6HR MIN TEMP:  70; 6HR MAX TEMP:  81;

GADSDEN        CLEAR     70  64  83 CALM      29.97S
6HR MIN TEMP:  70; 6HR MAX TEMP:  81;

$$

ALZ012-013-022-023-030>036-040>044-040700-
WEST CENTRAL ALABAMA

CITY           SKY/WX    TMP DP  RH WIND       PRES   REMARKS
TUSCALOOSA     CLEAR     72  70  93 W3        29.95F FOG
6HR MIN TEMP:  72; 6HR MAX TEMP:  84;

$$

ALZ015-024>027-033>036-040>044-040700-
CENTRAL ALABAMA

CITY           SKY/WX    TMP DP  RH WIND       PRES   REMARKS
BIRMINGHAM     CLEAR     75  72  90 NE3       29.99F
6HR MIN TEMP:  74; 6HR MAX TEMP:  82;

MONTGOMERY     CLEAR     73  69  87 CALM      29.96R
6HR MIN TEMP:  73; 6HR MAX TEMP:  79;

SHELBY CO ARPT CLEAR     73  70  90 CALM      29.97R
6HR MIN TEMP:  73; 6HR MAX TEMP:  85;

MAXWELL AFB    CLEAR     73  71  95 NW1       29.95S
6HR MIN TEMP:  73; 6HR MAX TEMP:  79;

GREENVILLE     FAIR      74  71  91 CALM      29.97R
6HR MIN TEMP:  73; 6HR MAX TEMP:  82;

$$

ALZ019-021-028-029-037-038-045>048-040700-
EAST CENTRAL ALABAMA

CITY           SKY/WX    TMP DP  RH WIND       PRES   REMARKS
ANNISTON       CLEAR     71  69  93 CALM      29.98S
6HR MIN TEMP:  71; 6HR MAX TEMP:  79;

ALEXANDER CITY CLEAR     72  70  94 CALM      29.98S
6HR MIN TEMP:  72; 6HR MAX TEMP:  80;

AUBURN         NOT AVBL
$$

ALZ051>064-040700-
SOUTHWEST ALABAMA

CITY           SKY/WX    TMP DP  RH WIND       PRES   REMARKS
MOBILE         CLEAR     73  72  96 W3        29.97S
6HR MIN TEMP:  73; 6HR MAX TEMP:  81;

BROOKLEY FIELD CLEAR     75  74  96 CALM      29.97S
6HR MIN TEMP:  75; 6HR MAX TEMP:  83;

EVERGREEN      CLEAR     73  72  96 CALM      29.97S FOG
6HR MIN TEMP:  72; 6HR MAX TEMP:  79;

$$

ALZ049-050-065>069-040700-
SOUTHEAST ALABAMA

CITY           SKY/WX    TMP DP  RH WIND       PRES   REMARKS
DOTHAN         PTCLDY    74  72  93 CALM      29.98F
6HR MIN TEMP:  73; 6HR MAX TEMP:  76; 6HR PCP:  0.01;

OZARK          PTCLDY    73  72  98 W5        29.96S
6HR MIN TEMP:  73; 6HR MAX TEMP:  76;

TROY           PTCLDY    73  71  93 CALM      29.97S
6HR MIN TEMP:  72; 6HR MAX TEMP:  82;

EUFAULA        FAIR      74  71  91 CALM      29.95S
6HR MIN TEMP:  73; 6HR MAX TEMP:  82;

$$



USA.gov is the U.S. government's official web portal to all federal, state and local government web resources and services.